Flint, MI

11:28 PM EDT on May 24, 2018 (GMT -0400)
Bishop International

Weather History for KFNT - October, 2011

Change the Weather History Date:

Wednesday, October 26, 2011

  Actual Average Record
Temperature  
Mean Temperature 48 °F 46 °F  
Max Temperature 52 °F 56 °F 81 °F (1963)
Min Temperature 43 °F 37 °F 24 °F (1962)
Degree Days  
Heating Degree Days 17 19  
Month to date heating degree days 285 388  
Since 1 July heating degree days 452 598  
Cooling Degree Days 0 0  
Month to date cooling degree days 3 2  
Year to date cooling degree days 819 528  
Moisture  
Dew Point 44 °F    
Average Humidity 88    
Maximum Humidity 100    
Minimum Humidity 76    
Precipitation  
Precipitation T in 0.08 in 0.69 in (1991)
Month to date precipitation 2.45 2.09  
Year to date precipitation 35.99 26.40  
Snow  
Snow 0.00 in 0.00 in 1.30 in (1997)
Month to date snowfall 0.0 0.3  
Since 1 July snowfall 0.0 0.3  
Since 1 September snowfall 0.0 0.3  
Snow Depth 0.00 in    
Sea Level Pressure  
Sea Level Pressure 29.85 in    
Wind  
Wind Speed 9 mph (NNE)    
Max Wind Speed 16 mph    
Max Gust Speed 20 mph    
Visibility 8 miles    
Events Rain    
T = Trace of Precipitation, MM = Missing Value Source: NWS Daily Summary

Daily Weather History Graph

Daily Weather History Graph

Search for Another Location

Airport or City:

Astronomy

Oct. 26, 2011 Rise Set
Actual Time 8:01 AM EDT 6:35 PM EDT
Civil Twilight 7:32 AM EDT 7:04 PM EDT
Nautical Twilight 6:59 AM EDT 7:37 PM EDT
Astronomical Twilight 6:26 AM EDT 8:10 PM EDT
Moon 7:49 AM EDT (10/26) 6:15 PM EDT (10/26)
Length of Visible Light 11h 32m
Length of Day
10h 34m
Waning Crescent, 0% of the Moon is Illuminated
Oct 26
Waning Crescent
Oct 26
New
Nov 2
First Quarter
Nov 10
Full
Nov 18
Last Quarter

Hourly Weather History & Observations

Time (EDT) Temp. Windchill Dew Point Humidity Pressure Visibility Wind Dir Wind Speed Gust Speed Precip Events Conditions
12:53 AM 53.1 °F - 46.0 °F 77% 29.78 in 10.0 mi Calm Calm - N/A   Overcast
1:53 AM 50.0 °F - 46.9 °F 89% 29.78 in 9.0 mi North 3.5 mph - N/A   Overcast
2:53 AM 48.0 °F - 45.0 °F 89% 29.78 in 5.0 mi North 5.8 mph - N/A   Mostly Cloudy
3:05 AM 46.4 °F 44.3 °F 44.6 °F 93% 29.77 in 5.0 mi North 4.6 mph - N/A   Mostly Cloudy
3:53 AM 46.9 °F - 45.0 °F 93% 29.78 in 4.0 mi North 4.6 mph - N/A   Overcast
4:53 AM 46.9 °F - 45.0 °F 93% 29.79 in 4.0 mi North 4.6 mph - N/A   Overcast
5:21 AM 46.4 °F 41.9 °F 44.6 °F 93% 29.77 in 3.0 mi North 9.2 mph - N/A   Overcast
5:53 AM 46.9 °F - 46.0 °F 97% 29.79 in 3.0 mi North 5.8 mph - N/A   Overcast
6:34 AM 46.4 °F 42.4 °F 46.4 °F 100% 29.81 in 2.0 mi North 8.1 mph - N/A   Overcast
6:53 AM 48.0 °F - 46.0 °F 93% 29.82 in 2.0 mi NNE 6.9 mph - N/A   Overcast
7:26 AM 48.2 °F - 46.4 °F 93% 29.82 in 2.0 mi North 6.9 mph - N/A   Overcast
7:53 AM 48.0 °F - 46.0 °F 93% 29.83 in 2.0 mi North 5.8 mph - N/A   Overcast
8:00 AM 48.2 °F - 46.4 °F 93% 29.82 in 4.0 mi North 5.8 mph - N/A   Overcast
8:53 AM 48.2 °F - 46.4 °F 93% 29.83 in 4.0 mi NNE 10.4 mph - N/A   Overcast
9:53 AM 48.2 °F - 46.4 °F 93% 29.84 in 6.0 mi NNE 6.9 mph - N/A   Overcast
10:53 AM 48.2 °F - 44.6 °F 87% 29.86 in 10.0 mi NE 6.9 mph - N/A   Overcast
11:14 AM 48.2 °F - 44.6 °F 87% 29.85 in 10.0 mi NNE 8.1 mph - N/A   Overcast
11:53 AM 50.0 °F - 44.1 °F 80% 29.86 in 10.0 mi NNE 6.9 mph - N/A   Overcast
12:36 PM 50.0 °F - 44.6 °F 82% 29.85 in 10.0 mi NNE 10.4 mph - N/A   Overcast
12:53 PM 51.1 °F - 44.1 °F 77% 29.86 in 10.0 mi NNE 11.5 mph - N/A   Overcast
1:27 PM 50.0 °F - 44.6 °F 82% 29.85 in 10.0 mi North 6.9 mph - N/A   Overcast
1:53 PM 50.0 °F - 44.1 °F 80% 29.86 in 10.0 mi NNE 9.2 mph - N/A   Overcast
2:53 PM 50.0 °F - 44.1 °F 80% 29.85 in 10.0 mi North 11.5 mph - N/A   Overcast
3:16 PM 50.0 °F - 44.6 °F 82% 29.84 in 10.0 mi North 10.4 mph - N/A   Overcast
3:24 PM 48.2 °F - 44.6 °F 87% 29.85 in 10.0 mi North 8.1 mph - N/A   Overcast
3:53 PM 48.9 °F - 44.1 °F 83% 29.88 in 10.0 mi North 11.5 mph - N/A   Overcast
4:44 PM 48.2 °F - 44.6 °F 87% 29.86 in 10.0 mi North 11.5 mph - 0.00 in Rain Light Rain
4:53 PM 46.9 °F - 44.1 °F 90% 29.88 in 8.0 mi North 12.7 mph - 0.00 in   Overcast
5:39 PM 46.4 °F 41.1 °F 42.8 °F 87% 29.87 in 10.0 mi North 11.5 mph - N/A   Overcast
5:53 PM 46.9 °F - 43.0 °F 86% 29.89 in 10.0 mi NNE 12.7 mph 18.4 mph 0.00 in Rain Light Rain
6:18 PM 46.4 °F 41.5 °F 42.8 °F 87% 29.88 in 10.0 mi NNE 10.4 mph - N/A   Overcast
6:53 PM 46.0 °F 40.6 °F 41.0 °F 83% 29.89 in 10.0 mi NNE 11.5 mph - 0.00 in   Overcast
7:53 PM 46.0 °F 41.4 °F 41.0 °F 83% 29.90 in 10.0 mi North 9.2 mph - 0.00 in   Overcast
8:46 PM 44.6 °F 40.2 °F 41.0 °F 87% 29.90 in 10.0 mi North 8.1 mph - 0.00 in Rain Light Rain
8:53 PM 45.0 °F 40.6 °F 41.0 °F 86% 29.91 in 10.0 mi North 8.1 mph - 0.00 in Rain Light Rain
9:30 PM 44.6 °F 38.8 °F 41.0 °F 87% 29.89 in 10.0 mi NNE 11.5 mph - 0.00 in   Overcast
9:53 PM 45.0 °F 40.6 °F 41.0 °F 86% 29.91 in 10.0 mi NNE 8.1 mph - 0.00 in   Overcast
10:34 PM 44.6 °F 39.2 °F 39.2 °F 81% 29.90 in 10.0 mi NNE 10.4 mph - N/A   Overcast
10:48 PM 44.6 °F 38.8 °F 39.2 °F 81% 29.91 in 10.0 mi NE 11.5 mph - N/A   Overcast
10:53 PM 44.1 °F 38.1 °F 39.0 °F 82% 29.92 in 10.0 mi NNE 11.5 mph - N/A   Overcast
11:53 PM 44.1 °F 39.0 °F 37.9 °F 79% 29.92 in 10.0 mi NNE 9.2 mph - N/A   Overcast